Flag for U.S.A. Weather past 2 weeks in Daytona Beach, Florida, U.S.A.

Now
66 °F

Passing clouds.


Feels Like: 66 °F
Forecast: 52 / 67 °F
Wind: 7 mph from Northwest

Location: Daytona Beach Regional Airport

Current Time: Mar 28, 2015 at 7:56:21 PM

Latest Report: Mar 28, 2015 at 6:53 PM


Visibility: 10 mi

Pressure: 30.11 "Hg

Humidity: 31%

Dew point: 34 °F

Location of Daytona BeachLocation

Historic Weather in Daytona Beach — Graph

°F

Daytona Beach temperature yesterday

Maximum temperature yesterday: 78 °F (at 12:53 PM)
Minimum temperature yesterday: 59 °F (at 11:53 PM)
Average temperature yesterday: 68 °F

Past Weeks' High & Low Weather Summary

 TemperatureHumidityPressure
High87 °F (Mar 14, 2:53 PM)100% (Mar 20, 7:53 PM)30.21 "Hg (Mar 20, 7:53 PM)
Low48 °F (Mar 28, 7:53 AM)26% (Mar 28, 4:53 PM)29.77 "Hg (Mar 27, 5:53 PM)
Average70 °F81%30.04 "Hg
* Reported Mar 13 5:53 PM — Mar 28 5:53 PM, Daytona Beach, Weather by CustomWeather, © 2015

Note: Actual official high and low records may vary slightly from our data, if they occured in-between our weather recording intervals... More about our weather records

Advertising

Daytona Beach weather history for previous 24 hours

 ConditionsComfort  
Time TempWeatherWind HumidityBarometerVisibility
5:53 PM
Sat, Mar 28
68 °FPassing clouds.12 mph28%30.10 "Hg10 mi
4:53 PM68 °FScattered clouds.12 mph26%30.09 "Hg10 mi
3:53 PM67 °FScattered clouds.10 mph29%30.09 "Hg10 mi
2:53 PM66 °FPartly sunny.13 mph29%30.11 "Hg10 mi
1:53 PM63 °FScattered clouds.7 mph35%30.13 "Hg10 mi
12:53 PM63 °FPartly sunny.13 mph35%30.14 "Hg10 mi
11:53 AM60 °FPartly sunny.10 mph41%30.16 "Hg10 mi
10:53 AM57 °FScattered clouds.8 mph42%30.16 "Hg10 mi
9:53 AM55 °FScattered clouds.10 mph53%30.15 "Hg10 mi
8:53 AM51 °FPartly sunny.12 mph66%30.13 "Hg10 mi
7:53 AM48 °FPartly cloudy.6 mph77%30.11 "Hg10 mi
6:53 AM49 °FPassing clouds.3 mph71%30.07 "Hg10 mi
5:53 AM51 °FPassing clouds.7 mph66%30.05 "Hg10 mi
4:53 AM53 °FPassing clouds.7 mph66%30.03 "Hg10 mi
3:53 AM52 °FPassing clouds.6 mph83%30.01 "Hg10 mi
2:53 AM53 °FPassing clouds.5 mph77%30.01 "Hg10 mi
1:53 AM54 °FPassing clouds.8 mph77%30.00 "Hg10 mi
12:53 AM57 °FPassing clouds.12 mph72%29.98 "Hg10 mi
11:53 PM
Fri, Mar 27
59 °FPassing clouds.13 mph72%29.96 "Hg10 mi
10:53 PM61 °FPassing clouds.13 mph70%29.93 "Hg10 mi
10:00 PM64 °FPassing clouds.15 mph75%29.89 "Hg10 mi
8:53 PM66 °FMostly cloudy.13 mph93%29.84 "Hg10 mi
7:53 PM66 °FBroken clouds.14 mph93%29.80 "Hg10 mi
Weather by CustomWeather, © 2015

See weather overviewHow to use our weather pages